Home > Weather > Edinburgh > Past weeks

Flag for United Kingdom Past Weather in Edinburgh, Scotland, United Kingdom — Yesterday and Last 2 Weeks

Now
55 °F

Passing clouds.


Feels Like: 54 °F
Forecast: 49 / 58 °F
Wind: 6 mph from West

Location: Edinburgh Airport

Current Time: Jun 29, 2016 at 7:26:43 PM

Latest Report: Jun 29, 2016 at 6:50 PM


Visibility: N/A

Pressure: 29.50 "Hg

Humidity: 82%

Dew Point: 50 °F

Location of EdinburghLocation

Past Weather in Edinburgh — Graph

°F

Edinburgh Temperature Yesterday

Maximum temperature yesterday: 61 °F (at 12:20 PM)
Minimum temperature yesterday: 48 °F (at 12:20 AM)
Average temperature yesterday: 55 °F

High & Low Weather Summary for the Past Weeks

 TemperatureHumidityPressure
High70 °F (Jun 23, 1:50 PM)100% (Jun 14, 6:50 PM)30.15 "Hg (Jun 14, 6:50 PM)
Low41 °F (Jun 18, 5:20 AM)49% (Jun 21, 5:50 PM)29.42 "Hg (Jun 14, 6:20 PM)
Average56 °F83%29.85 "Hg
* Reported Jun 14 6:20 PM — Jun 29 6:20 PM, Edinburgh, Weather by CustomWeather, © 2016

Note: Actual official high and low records may vary slightly from our data, if they occured in-between our weather recording intervals... More about our weather records

Advertising

Edinburgh Weather History for the Previous 24 Hours

Scroll right to see more
 ConditionsComfort  
Time TempWeatherWind HumidityBarometerVisibility
6:20 PM
Wed, Jun 29
55 °FLight rain. Partly sunny.6 mph88%29.50 "HgN/A
5:50 PM55 °FLight rain. Scattered clouds.3 mph82%29.50 "HgN/A
5:20 PM55 °FLight rain. Scattered clouds.5 mph82%29.50 "HgN/A
4:50 PM57 °FLight rain. Scattered clouds.5 mph77%29.50 "HgN/A
4:20 PM57 °FLight rain. Scattered clouds.2 mph67%29.50 "HgN/A
3:50 PM57 °FLight rain. Passing clouds.2 mph72%29.50 "HgN/A
3:20 PM55 °FLight rain. Scattered clouds.6 mph82%29.50 "HgN/A
2:20 PM55 °FLight rain. Cloudy.9 mph82%29.50 "HgN/A
1:50 PM55 °FLight rain. Scattered clouds.9 mph82%29.53 "HgN/A
1:20 PM55 °FLight rain. Partly sunny.12 mph82%29.53 "HgN/A
12:50 PM57 °FOvercast.8 mph72%29.53 "HgN/A
12:20 PM57 °FLight rain. Mostly cloudy.10 mph67%29.53 "HgN/A
11:50 AM59 °FPartly sunny.5 mph68%29.53 "HgN/A
11:20 AM59 °FBroken clouds.6 mph68%29.53 "HgN/A
10:50 AM57 °FScattered clouds.7 mph72%29.56 "HgN/A
10:20 AM57 °FCool.9 mph72%29.56 "HgN/A
9:50 AM55 °FScattered clouds.9 mph72%29.56 "HgN/A
9:20 AM55 °FPartly sunny.10 mph72%29.59 "HgN/A
8:50 AM55 °FCool.9 mph72%29.59 "HgN/A
8:20 AM55 °FCool.10 mph72%29.59 "HgN/A
7:50 AM54 °FCool.7 mph82%29.59 "HgN/A
7:20 AM52 °FCool.1 mph88%29.59 "HgN/A
6:50 AM52 °FCool.5 mph88%29.59 "HgN/A
6:20 AM52 °FCool.7 mph88%29.59 "HgN/A
5:50 AM48 °FCool.6 mph94%29.62 "HgN/A
5:20 AM50 °FPassing clouds.7 mph94%29.62 "HgN/A
4:50 AM52 °FCool.7 mph88%29.62 "HgN/A
4:20 AM50 °FCool.5 mph94%29.62 "HgN/A
3:50 AM52 °FCool.6 mph88%29.62 "HgN/A
3:20 AM52 °FCool.5 mph88%29.62 "HgN/A
2:50 AM52 °FCool.1 mph88%29.65 "HgN/A
2:20 AM52 °FCool.2 mph88%29.65 "HgN/A
1:50 AM52 °FPassing clouds.1 mph88%29.65 "HgN/A
1:20 AM50 °FPassing clouds.2 mph94%29.65 "HgN/A
12:20 AM52 °FPassing clouds.3 mph88%29.68 "HgN/A
11:50 PM
Tue, Jun 28
52 °FCool.5 mph88%29.68 "HgN/A
11:20 PM52 °FCool.2 mph94%29.68 "HgN/A
10:50 PM52 °FCool.1 mph94%29.71 "HgN/A
10:20 PM52 °FLight rain. Cloudy.1 mph100%29.71 "HgN/A
9:50 PM54 °FLight rain. Passing clouds.1 mph94%29.71 "HgN/A
9:20 PM54 °FLight rain. Overcast.2 mph88%29.71 "HgN/A
8:50 PM54 °FLight rain. Passing clouds.1 mph94%29.71 "HgN/A
8:20 PM54 °FLight rain. Cloudy.1 mph88%29.71 "HgN/A
7:50 PM54 °FLight rain. Cloudy.1 mph88%29.74 "HgN/A
7:20 PM55 °FLight rain. Partly sunny.3 mph82%29.74 "HgN/A
Weather by CustomWeather, © 2016

See weather overviewHow to use our weather pages